CW7220 Weather Reports


Display with metric or nautical units.
time (UTC)temp
F
wind
direction
speed
MPH
gust
MPH
rain 1hr
in
rain 24hr
in
rain mn
in
humidity
%
barometer
mb
20260508113929 67 80 8.0 0.0 0.00 0.00 0.00 82 1013.0
20260508112927 66 67 9.0 0.0 0.00 0.00 0.00 81 1012.9
20260508111919 66 104 8.0 0.0 0.00 0.00 0.00 81 1012.8
20260508110931 66 51 7.0 0.0 0.00 0.00 0.00 81 1012.9
20260508104921 66 68 8.0 0.0 0.00 0.00 0.00 82 1012.9
20260508102927 67 58 5.0 0.0 0.00 0.00 0.00 79 1013.3
20260508101922 67 59 4.0 0.0 0.00 0.00 0.00 78 1013.3
20260508095928 68 59 6.0 0.0 0.00 0.00 0.00 77 1013.0
20260508094920 67 63 6.0 0.0 0.00 0.00 0.00 77 1013.0
20260508093936 66 65 7.0 0.0 0.00 0.00 0.00 78 1012.9
20260508092929 66 62 7.0 0.0 0.00 0.00 0.00 80 1012.8
20260508090936 65 44 8.0 0.0 0.00 0.00 0.00 82 1012.5
20260508085932 65 65 9.0 0.0 0.00 0.00 0.00 83 1012.5
20260508084923 65 42 6.0 0.0 0.00 0.00 0.00 85 1012.6
20260508083936 64 23 6.0 0.0 0.00 0.00 0.00 86 1012.9
20260508082932 64 360 7.0 0.0 0.00 0.00 0.00 87 1012.7
20260508081924 64 16 6.0 0.0 0.00 0.00 0.00 87 1012.9
20260508080936 63 13 7.0 0.0 0.00 0.00 0.00 87 1012.9
20260508075927 63 19 8.0 0.0 0.00 0.00 0.00 88 1012.8
20260508074923 63 12 6.0 0.0 0.00 0.00 0.00 88 1012.7
20260508073937 63 26 6.0 0.0 0.00 0.00 0.00 89 1012.6
20260508072928 63 13 4.0 0.0 0.00 0.00 0.00 89 1012.6
20260508071923 62 12 4.0 0.0 0.00 0.00 0.00 89 1012.6
20260508070934 62 360 5.0 0.0 0.00 0.00 0.00 89 1012.6
20260508062932 61 5 7.0 0.0 0.00 0.00 0.00 90 1012.0
20260508061924 61 24 4.0 0.0 0.00 0.00 0.00 91 1012.2
20260508060937 61 22 4.0 0.0 0.00 0.00 0.00 91 1011.8
20260508054926 60 40 2.0 0.0 0.00 0.00 0.00 91 1011.8
20260508051927 60 40 4.0 0.0 0.00 0.00 0.00 90 1011.5
20260508045919 60 40 4.0 0.0 0.00 0.00 0.00 90 1011.1
20260508044930 60 28 5.0 0.0 0.00 0.00 0.00 90 1011.2
20260508043928 60 360 4.0 0.0 0.00 0.00 0.00 90 1011.2
20260508042919 60 5 5.0 0.0 0.00 0.00 0.00 90 1011.2
20260508041930 60 355 6.0 0.0 0.00 0.00 0.00 91 1011.0
20260508040922 60 11 6.0 0.0 0.00 0.00 0.00 91 1010.8
20260508034932 60 346 7.0 0.0 0.00 0.00 0.00 90 1010.9
20260508033924 60 350 7.0 0.0 0.00 0.00 0.00 90 1011.1
20260508032937 61 5 7.0 0.0 0.00 0.00 0.00 90 1011.2
20260508031933 60 5 7.0 0.0 0.00 0.00 0.00 90 1011.0
20260508030925 60 5 9.0 0.0 0.00 0.00 0.00 90 1010.9
20260508024936 60 19 9.0 0.0 0.00 0.00 0.00 89 1011.0
20260508023928 60 9 9.0 0.0 0.00 0.00 0.00 89 1011.2
20260508022919 60 355 10.0 0.0 0.00 0.00 0.00 88 1011.2
20260508021932 60 30 10.0 0.0 0.00 0.00 0.00 89 1011.1
20260508020929 61 360 9.0 0.0 0.00 0.00 0.00 89 1011.3
20260508015920 60 17 8.0 0.0 0.00 0.00 0.00 89 1011.4
20260508014933 60 9 8.0 0.0 0.00 0.00 0.00 89 1011.5
20260508013929 60 17 9.0 0.0 0.00 0.00 0.00 89 1011.4
20260508011936 60 5 9.0 0.0 0.00 0.00 0.00 89 1011.5
20260508010930 60 12 10.0 0.0 0.00 0.00 0.00 89 1011.5
20260508005925 60 5 8.0 0.0 0.00 0.00 0.00 90 1011.6
20260508004937 60 346 7.0 0.0 0.00 0.00 0.00 90 1011.8
20260508001921 60 15 10.0 0.0 0.00 0.00 0.00 90 1011.6
20260508000931 60 360 10.0 0.0 0.00 0.00 0.00 90 1011.4
20260507235923 60 20 10.0 0.0 0.00 0.00 0.59 90 1011.5
20260507234936 60 11 8.0 0.0 0.00 0.00 0.59 90 1011.4
20260507233932 60 346 9.0 0.0 0.00 0.00 0.59 90 1011.4
20260507232925 59 5 10.0 0.0 0.00 0.00 0.59 90 1011.4
20260507230933 59 40 7.0 0.0 0.00 0.00 0.59 90 1011.4
20260507225928 59 39 9.0 0.0 0.00 0.00 0.59 91 1011.5
20260507224922 59 18 10.0 0.0 0.00 0.00 0.59 91 1011.6
20260507223917 59 336 8.0 0.0 0.00 0.00 0.59 91 1011.9
20260507221925 59 5 7.0 0.0 0.00 0.00 0.59 91 1011.9
20260507220917 58 5 10.0 0.0 0.00 0.00 0.59 91 1012.0
20260507215928 58 355 10.0 0.0 0.00 0.00 0.59 91 1012.0
20260507214925 58 11 11.0 0.0 0.00 0.00 0.59 91 1011.9
20260507213938 58 18 11.0 0.0 0.00 0.00 0.59 90 1012.0
20260507212928 58 13 11.0 0.0 0.00 0.00 0.59 90 1012.1
20260507211925 58 12 9.0 0.0 0.00 0.00 0.59 90 1012.2
20260507210917 58 11 9.0 0.0 0.00 0.00 0.57 90 1012.3
20260507205931 58 355 10.0 0.0 0.00 0.00 0.54 89 1012.3
20260507202918 58 21 12.0 0.0 0.00 0.00 0.43 87 1012.2
20260507201930 58 360 12.0 0.0 0.00 0.00 0.41 87 1012.0
20260507200922 59 5 11.0 0.0 0.00 0.00 0.39 86 1012.2
20260507194931 59 346 10.0 0.0 0.00 0.00 0.35 86 1012.1
20260507193924 59 9 9.0 0.0 0.00 0.00 0.32 86 1012.0
20260507192935 59 314 10.0 0.0 0.00 0.00 0.28 87 1011.8
20260507190928 58 328 12.0 0.0 0.00 0.00 0.23 90 1011.1
20260507190020 59 320 11.0 0.0 0.00 0.00 0.20 90 1011.1
20260507184928 59 355 13.0 0.0 0.00 0.00 0.17 90 1011.1
20260507183924 59 327 12.0 0.0 0.00 0.00 0.13 90 1010.8
20260507182916 60 346 12.0 0.0 0.00 0.00 0.09 90 1010.7
20260507181928 60 5 11.0 0.0 0.00 0.00 0.06 90 1010.6
20260507175935 60 360 12.0 0.0 0.00 0.00 0.04 89 1010.4
20260507174928 60 355 8.0 0.0 0.00 0.00 0.03 88 1010.5
20260507173921 61 9 8.0 0.0 0.00 0.00 0.02 87 1010.5
20260507171930 62 9 11.0 0.0 0.00 0.00 0.00 84 1010.3
20260507170924 62 360 12.0 0.0 0.00 0.00 0.00 84 1010.1
20260507163930 62 30 10.0 0.0 0.00 0.00 0.00 87 1009.8
20260507162921 62 45 11.0 0.0 0.00 0.00 0.00 87 1009.7
20260507161934 63 33 11.0 0.0 0.00 0.00 0.00 87 1009.7
20260507154934 63 19 11.0 0.0 0.00 0.00 0.00 87 1009.5
20260507153927 63 54 9.0 0.0 0.00 0.00 0.00 87 1009.5
20260507152921 63 74 11.0 0.0 0.00 0.00 0.00 86 1009.7
20260507151933 63 53 10.0 0.0 0.00 0.00 0.00 87 1009.6
20260507150924 63 58 9.0 0.0 0.00 0.00 0.00 87 1009.8
20260507145935 63 74 10.0 0.0 0.00 0.00 0.00 86 1009.8
20260507144932 64 57 9.0 0.0 0.00 0.00 0.00 85 1009.9
20260507143923 64 59 8.0 0.0 0.00 0.00 0.00 84 1010.0
20260507142935 64 62 6.0 0.0 0.00 0.00 0.00 86 1010.1
20260507141927 63 79 9.0 0.0 0.00 0.00 0.00 87 1010.1
20260507140921 63 71 8.0 0.0 0.00 0.00 0.00 87 1010.4
20260507135932 64 71 5.0 0.0 0.00 0.00 0.00 88 1010.6
20260507134923 64 107 7.0 0.0 0.00 0.00 0.00 88 1010.7
20260507130921 64 79 9.0 0.0 0.00 0.00 0.00 86 1011.1
20260507125931 65 67 8.0 0.0 0.00 0.00 0.00 86 1011.3
20260507124927 65 109 8.0 0.0 0.00 0.00 0.00 86 1011.3
20260507123921 65 50 9.0 0.0 0.00 0.00 0.00 85 1011.3
20260507121932 64 49 9.0 0.0 0.00 0.00 0.00 85 1011.4
20260507120925 64 71 9.0 0.0 0.00 0.00 0.00 86 1011.5
20260507114929 64 71 13.0 0.0 0.00 0.00 0.00 85 1011.6